Location: Mascot Post Office (historical)
(40.2645°N, 99.5462°W)
Time: 02:05:32
(UTC+00:00)

Cosmos 1933 - Pass Details

Date: 14 July 2020
Orbit: 548 x 562 km, 82.5° (Epoch: 14 August)

Event Time Altitude Azimuth Distance (km) Brightness Sun altitude
Rises 05:35:22 0° 346° (NNW) 2,733 8.2 -26.1°
Reaches altitude 10° 05:37:34 10° 341° (NNW) 1,836 7.0 -26.2°
Enters shadow 05:40:44 43° 303° (WNW) 781 4.3 -26.4°
